n   0.33681366     Peri.  122.02987     -0.14610668     +0.98818284             
a   2.0458616      Node   139.48749     -0.92999525     -0.12123048             
e   0.5451958      Incl.    4.09077     -0.33728574     -0.09379687             
P   2.93           H   24.37          G   0.15           U   8                  
Residuals in seconds of arc
240727 F52  0.0   0.0     240729 H21  0.1-  0.1-    240729 K35  0.1+  0.8+
240727 F52  0.1+  0.0     240729 H21  0.1-  0.0     240729 L47  0.3-  1.3+
240728 L51  0.1+  0.2-    240729 U52  0.7+  0.3-    240729 L47  0.1-  0.5+
240728 L51  0.2-  0.0     240729 U52  0.1+  0.0     240729 L47  0.3-  0.3+
240728 L51  0.0   0.5-    240729 U52  0.6+  0.5+    240729 K35  0.1+  0.3-
240728 J95  0.2-  0.1-    240729 T08  0.3-  1.2+    240729 L47  0.5-  0.5+
240728 J95  0.1+  0.2-    240729 T08  0.2-  0.9-    240729 L47  0.3-  0.4+
240728 J95  0.2-  0.0     240729 T08  0.3+  0.2-    240729 K35  0.5+  0.2-
240728 I93  0.1-  0.0     240729 T08  0.3+  0.1-    240729 L47  0.9-  0.3-
240728 I93  0.1+  0.4+    240729 Q06  0.6+  0.2-    240729 K35  0.7-  0.4+
240728 I93  0.0   0.1+    240729 Q06  0.2-  0.1-    240729 L47  0.9-  0.5-
240729 M26  0.2+  0.5-    240729 Q06  0.2+  0.4-    240729 K35  0.0   0.2-
240729 L65  0.0   0.1-    240729 L18  0.2-  0.4+    240729 L38  0.1+  0.1+
240729 M26  0.3-  0.8-    240729 G34  0.8+  0.2+    240729 L38  0.2-  0.1+
240729 L65  0.0   0.1-    240729 L04  0.1-  0.9-    240729 203  0.2+  0.1+
240729 J95  0.3+  0.1-    240729 G34  0.5+  0.4+    240729 104  0.4+  0.2+
240729 J95  0.3-  0.0     240729 L04  0.2+  1.3-    240729 104  0.5-  0.2+
240729 J95  0.1-  0.1-    240729 G34  0.1-  0.1+    240729 104  0.4-  0.2+
240729 L65  0.1-  0.3+    240729 L18  0.5-  0.7+    240729 L01  0.6-  0.5+
240729 958  0.4-  0.2-    240729 G02  0.3+  0.4-    240729 203  0.3-  0.4-
240729 958  0.2-  0.5-    240729 M45  0.0   0.0     240729 L01  0.2-  0.4+
240729 958  0.6-  0.2-    240729 L18  0.7-  0.2+    240729 L01  0.1-  0.3+
240729 H21  0.2-  0.2-    240729 G02  0.4+  0.3-    240729 L01  0.5-  0.3+
240729 H21  0.1-  0.1-    240729 M45  0.3-  0.0     240729 L01  0.3-  0.3+
240729 H21  0.2-  0.0     240729 G02  0.3+  1.0-    240729 203  0.4-  0.0
Ephemeris:
2024 OP                  a,e,i = 2.05, 0.55, 4                   q = 0.9305
Date    TT    R. A. (2000) Decl.     Delta      r    Elong.  Phase     V
2024 06 30    10 38 24.7 +29 00 01   0.1527  0.9353    54.1   118.3    24.9
...
2024 07 15    10 54 10.1 +42 42 51   0.06137 0.9747    45.8   131.6    24.1
...
2024 07 23    19 31 35.4 +84 39 43   0.02463 1.0099    75.2   103.5    20.2
...
2024 07 29    22 36 14.2 +17 33 31   0.03801 1.0415   132.8    45.6    19.1
2024 07 30    22 37 35.3 +12 25 28   0.04303 1.0472   137.2    41.2    19.3
2024 07 31    22 38 32.9 +08 22 23   0.04833 1.0530   140.7    37.6    19.4
...
2024 08 06    22 40 27.0 -04 31 05   0.08320 1.0894   153.5    24.5    20.3
...
2024 08 14    22 39 16.3 -10 57 57   0.1341  1.1425   164.0    14.2    21.1
...
2024 08 29    22 35 04.4 -15 15 44   0.2422  1.2511   174.0     4.8    22.2
M. P. C. Staff               (C) Copyright 2024 MPC           M.P.E.C. 2024-O95
    
    
More information about the Iaude
mailing list